Total_Precipitation_Accumulation
0.00 0.00 0.00 0.00 0.00 0.00 0.00 0.00 0.00 0.05 0.19 0.20 0.27 0.39 0.62 0.56 0.88 1.05 0.93 0.59 0.46 0.31 0.23 0.14 0.05 0.04 0.04 0.03 0.02 0.04 0.11 0.24 0.23 0.39 0.71 0.60 0.31 0.25 0.39 0.55 0.38 0.28 0.24
0.00 0.00 0.00 0.00 0.00 0.00 0.00 0.00 0.00 0.00 0.07 0.17 0.21 0.20 0.35 0.74 0.85 0.92 1.08 1.20 1.04 0.77 0.52 0.31 0.14 0.06 0.04 0.05 0.04 0.02 0.05 0.10 0.22 0.24 0.36 0.75 0.72 0.34 0.28 0.49 0.54 0.38 0.30
0.00 0.00 0.00 0.00 0.00 0.00 0.00 0.00 0.00 0.00 0.01 0.06 0.16 0.24 0.24 0.40 0.68 0.97 0.96 1.03 1.09 1.09 1.22 1.01 0.57 0.28 0.13 0.07 0.06 0.06 0.04 0.04 0.05 0.10 0.21 0.33 0.50 0.54 0.33 0.27 0.32 0.39 0.38
0.01 0.01 0.01 0.01 0.01 0.02 0.01 0.00 0.00 0.00 0.00 0.01 0.05 0.11 0.23 0.26 0.41 0.55 0.72 0.81 1.01 1.10 1.03 1.40 1.46 0.90 0.53 0.31 0.13 0.12 0.10 0.08 0.07 0.04 0.02 0.04 0.09 0.20 0.36 0.37 0.23 0.16 0.31
0.08 0.06 0.05 0.05 0.05 0.04 0.04 0.02 0.01 0.01 0.01 0.00 0.02 0.05 0.09 0.22 0.29 0.35 0.51 0.61 0.71 0.87 0.99 1.20 1.35 1.46 1.27 0.85 0.53 0.29 0.26 0.19 0.11 0.06 0.04 0.02 0.01 0.02 0.11 0.23 0.30 0.22 0.16
0.17 0.16 0.13 0.09 0.07 0.04 0.02 0.02 0.01 0.02 0.02 0.02 0.02 0.05 0.10 0.16 0.23 0.29 0.31 0.37 0.44 0.57 0.73 0.82 1.03 1.24 1.27 1.38 1.12 0.77 0.44 0.40 0.27 0.13 0.05 0.05 0.02 0.01 0.01 0.05 0.09 0.21 0.27
0.17 0.16 0.15 0.12 0.09 0.05 0.04 0.03 0.03 0.04 0.04 0.04 0.04 0.05 0.06 0.09 0.17 0.25 0.31 0.36 0.32 0.37 0.44 0.59 0.69 0.81 0.94 1.05 1.13 1.03 0.98 0.81 0.47 0.34 0.18 0.07 0.05 0.03 0.01 0.01 0.03 0.04 0.10
0.17 0.15 0.14 0.12 0.10 0.07 0.05 0.04 0.05 0.06 0.06 0.05 0.07 0.06 0.06 0.05 0.07 0.15 0.21 0.27 0.39 0.41 0.37 0.43 0.54 0.62 0.69 0.73 0.82 0.89 0.85 0.91 0.90 0.60 0.43 0.29 0.12 0.08 0.10 0.05 0.02 0.03 0.03
0.18 0.16 0.14 0.12 0.09 0.07 0.07 0.07 0.06 0.08 0.09 0.08 0.07 0.07 0.08 0.07 0.07 0.09 0.12 0.21 0.24 0.30 0.37 0.38 0.44 0.52 0.55 0.62 0.70 0.72 0.69 0.64 0.67 0.74 0.64 0.48 0.33 0.18 0.12 0.12 0.07 0.04 0.03
0.16 0.15 0.13 0.11 0.09 0.08 0.08 0.06 0.05 0.08 0.10 0.10 0.10 0.11 0.10 0.10 0.10 0.07 0.08 0.10 0.16 0.21 0.24 0.27 0.30 0.39 0.49 0.55 0.58 0.67 0.73 0.68 0.61 0.54 0.59 0.51 0.35 0.24 0.18 0.10 0.07 0.04 0.04
0.16 0.12 0.09 0.07 0.05 0.05 0.04 0.05 0.04 0.04 0.04 0.07 0.10 0.08 0.10 0.10 0.08 0.08 0.08 0.06 0.07 0.06 0.10 0.17 0.24 0.26 0.28 0.38 0.47 0.52 0.58 0.64 0.68 0.69 0.66 0.58 0.44 0.31 0.21 0.14 0.11 0.08 0.04
0.16 0.12 0.07 0.03 0.02 0.01 0.01 0.02 0.02 0.02 0.03 0.04 0.05 0.07 0.09 0.09 0.10 0.12 0.11 0.09 0.04 0.03 0.04 0.06 0.10 0.18 0.25 0.25 0.27 0.34 0.42 0.46 0.48 0.54 0.61 0.64 0.58 0.47 0.37 0.26 0.16 0.10 0.06
0.09 0.07 0.06 0.03 0.01 0.00 0.00 0.00 0.00 0.00 0.00 0.01 0.01 0.02 0.04 0.06 0.09 0.12 0.15 0.14 0.12 0.08 0.03 0.02 0.04 0.07 0.11 0.18 0.22 0.22 0.25 0.29 0.32 0.34 0.38 0.45 0.48 0.46 0.40 0.35 0.31 0.22 0.13
0.08 0.05 0.03 0.02 0.01 0.00 0.00 0.00 0.00 0.00 0.00 0.00 0.01 0.01 0.02 0.02 0.04 0.06 0.09 0.11 0.13 0.13 0.13 0.10 0.07 0.05 0.06 0.08 0.12 0.16 0.17 0.18 0.19 0.20 0.21 0.21 0.26 0.31 0.31 0.30 0.29 0.28 0.23
0.06 0.03 0.02 0.01 0.01 0.00 0.00 0.00 0.00 0.00 0.00 0.00 0.00 0.01 0.01 0.01 0.01 0.01 0.03 0.05 0.08 0.10 0.11 0.11 0.12 0.13 0.13 0.14 0.10 0.10 0.10 0.10 0.12 0.14 0.16 0.17 0.16 0.16 0.15 0.15 0.18 0.21 0.19
0.01 0.01 0.01 0.00 0.00 0.00 0.00 0.00 0.00 0.00 0.00 0.00 0.00 0.00 0.00 0.01 0.01 0.01 0.02 0.01 0.02 0.04 0.06 0.08 0.10 0.10 0.12 0.18 0.25 0.22 0.18 0.19 0.15 0.09 0.06 0.06 0.09 0.12 0.12 0.13 0.13 0.14 0.15
0.00 0.00 0.00 0.00 0.00 0.00 0.00 0.00 0.00 0.00 0.00 0.00 0.00 0.00 0.00 0.00 0.00 0.00 0.01 0.01 0.01 0.01 0.01 0.03 0.04 0.06 0.07 0.12 0.17 0.26 0.17 0.12 0.13 0.15 0.14 0.12 0.07 0.03 0.02 0.03 0.06 0.08 0.09
0.00 0.00 0.00 0.00 0.00 0.00 0.00 0.00 0.00 0.00 0.00 0.00 0.00 0.00 0.00 0.00 0.00 0.00 0.00 0.00 0.01 0.01 0.01 0.01 0.02 0.02 0.02 0.07 0.11 0.17 0.16 0.07 0.07 0.09 0.09 0.11 0.11 0.11 0.11 0.10 0.08 0.07 0.04
0.00 0.00 0.00 0.00 0.00 0.00 0.00 0.00 0.00 0.00 0.00 0.00 0.00 0.00 0.00 0.00 0.00 0.00 0.00 0.00 0.00 0.00 0.00 0.01 0.01 0.01 0.00 0.02 0.07 0.12 0.10 0.05 0.02 0.04 0.07 0.08 0.08 0.07 0.15 0.17 0.13 0.12 0.09
0.00 0.00 0.00 0.00 0.00 0.00 0.00 0.00 0.00 0.00 0.00 0.00 0.00 0.00 0.00 0.00 0.00 0.00 0.00 0.00 0.00 0.00 0.00 0.00 0.00 0.00 0.01 0.01 0.02 0.08 0.11 0.07 0.03 0.02 0.01 0.04 0.08 0.05 0.08 0.22 0.11 0.11 0.05
0.00 0.00 0.00 0.00 0.00 0.00 0.00 0.00 0.00 0.00 0.00 0.00 0.00 0.00 0.00 0.00 0.00 0.00 0.00 0.00 0.00 0.00 0.00 0.00 0.00 0.00 0.00 0.00 0.00 0.02 0.08 0.09 0.06 0.03 0.02 0.01 0.02 0.09 0.15 0.19 0.22 0.06 0.01
0.00 0.00 0.00 0.00 0.00 0.00 0.00 0.00 0.00 0.00 0.00 0.00 0.00 0.00 0.00 0.00 0.00 0.00 0.00 0.00 0.00 0.00 0.00 0.00 0.00 0.00 0.00 0.00 0.00 0.00 0.01 0.03 0.06 0.03 0.01 0.00 0.00 0.02 0.04 0.08 0.21 0.26 0.26
0.00 0.00 0.00 0.00 0.00 0.00 0.00 0.00 0.00 0.00 0.00 0.00 0.00 0.00 0.00 0.00 0.00 0.00 0.00 0.00 0.00 0.00 0.00 0.00 0.00 0.00 0.00 0.00 0.00 0.00 0.00 0.00 0.01 0.04 0.04 0.03 0.04 0.02 0.02 0.02 0.03 0.08 0.19
0.00 0.00 0.00 0.00 0.00 0.00 0.00 0.00 0.00 0.00 0.00 0.00 0.00 0.00 0.00 0.00 0.00 0.00 0.00 0.00 0.00 0.00 0.00 0.00 0.00 0.00 0.00 0.00 0.00 0.00 0.00 0.00 0.00 0.00 0.01 0.03 0.04 0.06 0.08 0.06 0.03 0.03 0.12
0.00 0.00 0.00 0.00 0.00 0.00 0.00 0.00 0.00 0.00 0.00 0.00 0.00 0.00 0.00 0.00 0.00 0.00 0.00 0.00 0.00 0.00 0.01 0.01 0.00 0.00 0.00 0.00 0.00 0.01 0.00 0.00 0.00 0.01 0.01 0.00 0.00 0.00 0.00 0.00 0.00 0.00 0.00
0.00 0.00 0.00 0.00 0.00 0.00 0.00 0.00 0.00 0.00 0.00 0.00 0.00 0.00 0.00 0.00 0.00 0.00 0.00 0.00 0.01 0.02 0.03 0.04 0.08 0.07 0.04 0.04 0.03 0.07 0.08 0.09 0.12 0.13 0.08 0.01 0.00 0.00 0.00 0.00 0.00 0.00 0.00